This is the latest recevied weather packets stored in our database for station/object AC1IX. If no packets are shown the sender has not sent any weather packets the latest 10 day(s).
| Time | Temp. | Humidity | Pressure | Rain* | Wind** | Luminosity | Snow |
|---|---|---|---|---|---|---|---|
| 1777729089 | 5° C | 99% | 1013.2 hPa | 0 mm | - | 81 W/m² | - |
| 1777728786 | 5° C | 99% | 1013.2 hPa | 0 mm | - | 38 W/m² | - |
| 1777728482 | 5° C | 99% | 1013.1 hPa | 0 mm | - | 49 W/m² | - |
| 1777728180 | 5° C | 99% | 1013 hPa | 0 mm | - | 72 W/m² | - |
| 1777727877 | 5° C | 99% | 1013.2 hPa | 0 mm | - | 108 W/m² | - |
| 1777727574 | 5° C | 99% | 1013 hPa | 0 mm | - | 51 W/m² | - |
| 1777727271 | 5° C | 99% | 1012.9 hPa | 0 mm | - | 44 W/m² | - |
| 1777726969 | 5.56° C | 99% | 1013 hPa | 0 mm | - | 40 W/m² | - |
| 1777726665 | 5.56° C | 99% | 1013 hPa | 0 mm | - | 29 W/m² | - |
| 1777726363 | 5.56° C | 99% | 1012.9 hPa | 0 mm | - | 117 W/m² | - |
| 1777726059 | 5.56° C | 99% | 1012.9 hPa | 0 mm | - | 50 W/m² | - |
| 1777725756 | 5.56° C | 99% | 1012.9 hPa | 0 mm | - | 34 W/m² | - |
| 1777725455 | 5.56° C | 99% | 1012.8 hPa | 0 mm | - | 46 W/m² | - |
| 1777725151 | 5.56° C | 99% | 1012.8 hPa | 0 mm | - | 52 W/m² | - |
| 1777724848 | 5.56° C | 99% | 1012.7 hPa | 1.78 mm | - | 48 W/m² | - |
| 1777724544 | 5.56° C | 99% | 1012.7 hPa | 1.78 mm | - | 43 W/m² | - |
| 1777724243 | 6.11° C | 99% | 1012.8 hPa | 0 mm | - | 46 W/m² | - |
| 1777723940 | 5.56° C | 99% | 1012.8 hPa | 0 mm | - | 42 W/m² | - |
| 1777723636 | 5.56° C | 99% | 1012.8 hPa | 1.27 mm | - | 37 W/m² | - |
| 1777723333 | 5.56° C | 99% | 1012.7 hPa | 1.27 mm | - | 17 W/m² | - |
| 1777723031 | 6.11° C | 99% | 1012.8 hPa | 0 mm | - | 39 W/m² | - |
| 1777722728 | 6.11° C | 99% | 1012.6 hPa | 0 mm | - | 43 W/m² | - |
| 1777722423 | 6.11° C | 99% | 1012.5 hPa | 0 mm | - | 49 W/m² | - |
| 1777722121 | 6.11° C | 99% | 1012.4 hPa | 0 mm | - | 31 W/m² | - |
| 1777721818 | 6.67° C | 99% | 1012.3 hPa | 1.78 mm | - | 26 W/m² | - |
* Rain latest hour (hover to see other rain measurements)
** Current wind speed in m/s (hover to see current wind gust speed)